Home > Weather > Manado > Past weeks

Flag for Indonesia Weather for the Past 2 Weeks in Manado, North Sulawesi, Indonesia

Now
81 °F

Passing clouds.


Feels Like: 86 °F
Forecast: 78 / 91 °F
Wind: 2 mph from North

Location: Menado / Dr. Sam Ratulangi

Current Time: Apr 30, 2016 at 7:57:35 AM

Latest Report: Apr 30, 2016 at 7:30 AM


Visibility: N/A

Pressure: 29.86 "Hg

Humidity: 84%

Dew Point: 75 °F

Location of ManadoLocation

Historic Weather in Manado — Graph

°F

Manado Temperature Yesterday

Maximum temperature yesterday: 90 °F (at 10:00 AM)
Minimum temperature yesterday: 75 °F (at 12:00 AM)
Average temperature yesterday: 82 °F

High & Low Weather Summary for the Past Weeks

 TemperatureHumidityPressure
High93 °F (Apr 24, 2:30 PM)100% (Apr 15, 6:30 AM)29.92 "Hg (Apr 15, 6:30 AM)
Low72 °F (Apr 18, 4:00 AM)52% (Apr 23, 11:00 AM)29.74 "Hg (Apr 25, 3:00 PM)
Average80 °F85%29.84 "Hg
* Reported Apr 15 6:00 AM — Apr 30 6:30 AM, Manado, Weather by CustomWeather, © 2016

Note: Actual official high and low records may vary slightly from our data, if they occured in-between our weather recording intervals... More about our weather records

Advertising

Manado Weather History for the Previous 24 Hours

Scroll right to see more
 ConditionsComfort  
Time TempWeatherWind HumidityBarometerVisibility
6:30 AM
Sat, Apr 30
73 °FPassing clouds.1 mph100%29.86 "HgN/A
6:00 AM73 °FPassing clouds.3 mph94%29.86 "HgN/A
5:30 AM73 °FPassing clouds.No wind94%29.83 "HgN/A
5:00 AM73 °FPassing clouds.1 mph94%29.83 "HgN/A
4:30 AM73 °FPassing clouds.2 mph94%29.83 "HgN/A
4:00 AM73 °FPassing clouds.No wind94%29.83 "HgN/A
3:30 AM73 °FPassing clouds.1 mph100%29.83 "HgN/A
3:00 AM73 °FPassing clouds.2 mph100%29.83 "HgN/A
2:30 AM75 °FPassing clouds.1 mph94%29.83 "HgN/A
2:00 AM75 °FPassing clouds.2 mph94%29.83 "HgN/A
1:30 AM75 °FPassing clouds.1 mph94%29.83 "HgN/A
1:00 AM75 °FPassing clouds.2 mph94%29.83 "HgN/A
12:30 AM75 °FPassing clouds.2 mph100%29.86 "HgN/A
12:00 AM75 °FPassing clouds.1 mph100%29.86 "HgN/A
11:30 PM
Fri, Apr 29
77 °FPassing clouds.1 mph94%29.86 "Hg6 mi
11:00 PM77 °FPassing clouds.No wind94%29.86 "Hg6 mi
10:30 PM77 °FPassing clouds.2 mph94%29.89 "Hg6 mi
10:00 PM77 °FPassing clouds.1 mph94%29.89 "Hg6 mi
9:30 PM77 °FPassing clouds.1 mph94%29.86 "HgN/A
9:00 PM79 °FPassing clouds.1 mph94%29.86 "HgN/A
8:30 PM79 °FPassing clouds.1 mph94%29.86 "HgN/A
8:00 PM79 °FPassing clouds.1 mph94%29.86 "HgN/A
7:30 PM81 °FPassing clouds.1 mph89%29.86 "HgN/A
7:00 PM81 °FPassing clouds.No wind89%29.83 "HgN/A
6:30 PM82 °FPassing clouds.1 mph84%29.83 "HgN/A
6:00 PM82 °FPassing clouds.1 mph84%29.83 "HgN/A
5:30 PM84 °FScattered clouds.1 mph79%29.80 "HgN/A
5:00 PM86 °FScattered clouds.2 mph75%29.80 "Hg6 mi
4:30 PM86 °FScattered clouds.2 mph75%29.80 "Hg6 mi
4:00 PM86 °FScattered clouds.3 mph75%29.77 "Hg6 mi
3:30 PM88 °FScattered clouds.3 mph70%29.77 "Hg6 mi
3:00 PM88 °FScattered clouds.5 mph70%29.77 "Hg6 mi
2:30 PM86 °FScattered clouds.3 mph75%29.77 "Hg6 mi
2:00 PM84 °FScattered clouds.5 mph79%29.77 "Hg6 mi
12:30 PM90 °FThunderstorms. Scattered clouds.8 mph67%29.80 "Hg6 mi
12:00 PM90 °FScattered clouds.7 mph71%29.83 "Hg6 mi
11:30 AM90 °FScattered clouds.6 mph67%29.83 "HgN/A
10:30 AM90 °FScattered clouds.6 mph67%29.83 "HgN/A
10:00 AM90 °FPassing clouds.3 mph67%29.83 "HgN/A
9:00 AM88 °FPassing clouds.2 mph66%29.86 "HgN/A
8:30 AM88 °FPassing clouds.2 mph70%29.86 "HgN/A
8:00 AM88 °FPassing clouds.No wind66%29.83 "HgN/A
7:00 AM79 °FPassing clouds.2 mph89%29.86 "Hg6 mi
Weather by CustomWeather, © 2016

See weather overviewHow to use our weather pages